DW3212 Weather Reports


Display with metric or nautical units.
time (UTC)temp
F
wind
direction
speed
MPH
gust
MPH
rain 1hr
in
rain 24hr
in
rain mn
in
humidity
%
barometer
mb
20260901060108 61 0.0 0.0 0.00 0.00 0.00 92 1019.2
20260901054605 61 0.0 0.0 0.00 0.00 0.00 92 1019.1
20260901053110 61 0.0 0.0 0.00 0.00 0.00 91 1019.2
20260901051606 62 0.0 0.0 0.00 0.00 0.00 90 1019.4
20260901050105 62 0.0 0.0 0.00 0.00 0.00 90 1019.3
20260901044609 62 0.0 0.0 0.00 0.00 0.00 90 1019.2
20260901043107 62 0.0 0.0 0.00 0.00 0.00 91 1019.3
20260901041604 62 0.0 0.0 0.00 0.00 0.00 90 1019.2
20260901040101 62 0.0 0.0 0.00 0.00 0.00 88 1019.3
20260901034604 62 0.0 0.0 0.00 0.00 0.00 89 1019.2
20260901033117 62 0.0 0.0 0.00 0.00 0.00 89 1019.3
20260901031608 62 0.0 0.0 0.00 0.00 0.00 89 1019.4
20260901030104 62 0.0 0.0 0.00 0.00 0.00 89 1019.5
20260901024602 63 0.0 0.0 0.00 0.00 0.00 88 1019.7
20260901023101 63 0.0 0.0 0.00 0.00 0.00 88 1019.8
20260901021605 63 0.0 0.0 0.00 0.00 0.00 89 1019.7
20260901014559 63 0.0 0.0 0.00 0.00 0.00 88 1019.7
20260901013113 63 0.0 0.0 0.00 0.00 0.00 88 1019.8
20260901011615 63 0.0 0.0 0.00 0.00 0.00 88 1019.8
20260901010113 63 0.0 0.0 0.00 0.00 0.00 87 1019.8
20260901004604 63 0.0 0.0 0.00 0.00 0.00 85 1019.7
20260901003059 63 0.0 0.0 0.00 0.00 0.00 84 1019.7
20260901001600 63 0.0 0.0 0.00 0.00 0.00 84 1019.6
20260901000103 64 0.0 0.0 0.00 0.00 0.00 83 1019.7
20260831234604 64 0.0 0.0 0.00 0.00 0.00 83 1019.5
20260831233101 64 0.0 0.0 0.00 0.00 0.00 82 1019.6
20260831231604 64 0.0 0.0 0.00 0.00 0.00 82 1019.8
20260831230111 65 0.0 0.0 0.00 0.00 0.00 80 1020.1
20260831224602 66 0.0 0.0 0.00 0.00 0.00 79 1020.2
20260831223115 66 0.0 0.0 0.00 0.00 0.00 78 1020.2
20260831221609 66 0.0 0.0 0.00 0.00 0.00 79 1020.2
20260831220115 67 0.0 0.0 0.00 0.00 0.00 77 1020.1
20260831214611 67 0.0 0.0 0.00 0.00 0.00 76 1020.1
20260831213057 68 0.0 0.0 0.00 0.00 0.00 78 1020.0
20260831211559 67 0.0 0.0 0.00 0.00 0.00 77 1020.0
20260831210100 68 0.0 0.0 0.00 0.00 0.00 76 1020.0
20260831204601 69 0.0 0.0 0.00 0.00 0.00 72 1020.1
20260831203107 70 0.0 0.0 0.00 0.00 0.00 70 1020.1
20260831201605 72 0.0 0.0 0.00 0.00 0.00 65 1020.1
20260831200110 73 0.0 0.0 0.00 0.00 0.00 66 1020.2
20260831194615 71 0.0 0.0 0.00 0.00 0.00 62 1020.4
20260831193059 73 0.0 0.0 0.00 0.00 0.00 59 1020.4
20260831191601 72 0.0 0.0 0.00 0.00 0.00 54 1020.6
20260831190115 73 0.0 0.0 0.00 0.00 0.00 56 1020.5
20260831184605 71 0.0 0.0 0.00 0.00 0.00 62 1020.7
20260831183101 71 0.0 0.0 0.00 0.00 0.00 64 1020.9
20260831181603 72 0.0 0.0 0.00 0.00 0.00 58 1020.9
20260831180115 70 0.0 0.0 0.00 0.00 0.00 62 1021.0
20260831174559 70 0.0 0.0 0.00 0.00 0.00 63 1020.9
20260831173102 70 0.0 0.0 0.00 0.00 0.00 67 1021.0
20260831171604 70 0.0 0.0 0.00 0.00 0.00 67 1021.1
20260831170119 70 0.0 0.0 0.00 0.00 0.00 67 1021.1
20260831164607 69 0.0 0.0 0.00 0.00 0.00 67 1021.5
20260831163102 69 0.0 0.0 0.00 0.00 0.00 66 1021.4
20260831161605 70 0.0 0.0 0.00 0.00 0.00 64 1021.5
20260831160108 69 0.0 0.0 0.00 0.00 0.00 63 1021.6
20260831154622 70 0.0 0.0 0.00 0.00 0.00 65 1021.6
20260831153059 69 0.0 0.0 0.00 0.00 0.00 62 1021.7
20260831151602 70 0.0 0.0 0.00 0.00 0.00 65 1021.6
20260831150110 69 0.0 0.0 0.00 0.00 0.00 69 1021.5
20260831144606 68 0.0 0.0 0.00 0.00 0.00 67 1021.7
20260831143105 69 0.0 0.0 0.00 0.00 0.00 65 1021.6
20260831141611 69 0.0 0.0 0.00 0.00 0.00 63 1021.6
20260831134606 67 0.0 0.0 0.00 0.00 0.00 68 1021.5
20260831133104 67 0.0 0.0 0.00 0.00 0.00 70 1021.6
20260831131603 67 0.0 0.0 0.00 0.00 0.00 72 1021.6
20260831130109 66 0.0 0.0 0.00 0.00 0.00 69 1021.5
20260831124557 65 0.0 0.0 0.00 0.00 0.00 76 1021.6
20260831123058 64 0.0 0.0 0.00 0.00 0.00 77 1021.5
20260831121559 64 0.0 0.0 0.00 0.00 0.00 80 1021.5
20260831120124 62 0.0 0.0 0.00 0.00 0.00 82 1021.4
20260831114605 63 0.0 0.0 0.00 0.00 0.00 80 1021.2
20260831113107 61 0.0 0.0 0.00 0.00 0.00 87 1021.1
20260831111613 58 0.0 0.0 0.00 0.00 0.00 91 1020.9
20260831110105 56 0.0 0.0 0.00 0.00 0.00 94 1020.8
20260831104606 55 0.0 0.0 0.00 0.00 0.00 94 1020.8
20260831103105 54 0.0 0.0 0.00 0.00 0.00 95 1020.9
20260831101602 54 0.0 0.0 0.00 0.00 0.00 94 1020.8
20260831100114 55 0.0 0.0 0.00 0.00 0.00 94 1020.8
20260831094605 55 0.0 0.0 0.00 0.00 0.00 94 1020.8
20260831093101 56 0.0 0.0 0.00 0.00 0.00 94 1020.6
20260831091605 56 0.0 0.0 0.00 0.00 0.00 93 1020.5
20260831090107 57 0.0 0.0 0.00 0.00 0.00 92 1020.4
20260831084609 57 0.0 0.0 0.00 0.00 0.00 93 1020.4
20260831083102 57 0.0 0.0 0.00 0.00 0.00 93 1020.4
20260831081605 57 0.0 0.0 0.00 0.00 0.00 92 1020.3
20260831080137 58 0.0 0.0 0.00 0.00 0.00 90 1020.1
20260831074607 58 0.0 0.0 0.00 0.00 0.00 90 1020.0
20260831073116 59 0.0 0.0 0.00 0.00 0.00 90 1020.0
20260831071600 59 0.0 0.0 0.00 0.00 0.00 90 1020.1
20260831070104 59 0.0 0.0 0.00 0.00 0.00 91 1020.0
20260831064607 59 0.0 0.0 0.00 0.00 0.00 91 1019.9
20260831063106 59 0.0 0.0 0.00 0.00 0.00 91 1019.9
20260831061605 59 0.0 0.0 0.00 0.00 0.00 91 1020.0